Regional Weather Roundup
Issued by NWS Northern Indiana

Home | Current Version | Previous Version | Graphics & Text | Print | Product List | Glossary On
Versions: 1 2 3 4 5 6 7 8 9 10 11 12 13 14 15 16 17 18 19 20 21 22 23 24 25 26 27 28 29 30 31 32 33 34 35 36 37 38 39 40 41 42 43 44 45 46 47 48 49 50
000
ASUS43 KIWX 271300
RWRIWX

KIWX WEATHER ROUNDUP
NATIONAL WEATHER SERVICE NORTHERN INDIANA
800 AM EST THU NOV 27 2014

NOTE: "FAIR" INDICATES FEW OR NO CLOUDS BELOW 12,000 FEET WITH NO
SIGNIFICANT WEATHER AND/OR OBSTRUCTIONS TO VISIBILITY.

* THESE STATIONS ARE NOT UNDER NWS QUALITY CONTROL. THEY ALSO MAY NOT
  REPORT WEATHER SUCH AS PRECIPITATION OR FOG.

INZ001>027-271400-
NORTHERN INDIANA

CITY           SKY/WX    TMP DP  RH WIND       PRES   REMARKS
GARY*          CLOUDY    28  21  74 W8        30.27R WCI  20
SOUTH BEND     LGT SNOW  28  26  92 W5        30.21R VSB 3/4 WCI  23
GOSHEN         CLOUDY    28  23  81 W7        30.19R WCI  21
ANGOLA*        CLOUDY    27  21  80 W3        30.16R
FORT WAYNE     MOCLDY    26  22  84 W8        30.21R WCI  18

$$
INZ028>050-271400-
CENTRAL INDIANA

CITY           SKY/WX    TMP DP  RH WIND       PRES   REMARKS
LAFAYETTE      CLOUDY    27  24  89 NW9       30.28R FOG     WCI  18
KOKOMO*        CLOUDY    28  21  74 W12       30.23R WCI  18
MUNCIE*        CLOUDY    27  22  81 NW14      30.22R WCI  16
INDIANAPOLIS   FLURRIES  25  20  81 NW6       30.25R WCI  18

$$
MIZ043>046-050>051-056>058-064>065-071>073-077>080-271400-
SOUTHWEST LOWER MICHIGAN

CITY           SKY/WX    TMP DP  RH WIND       PRES   REMARKS
BATTLE CREEK   CLOUDY    28  21  75 W6        30.16R WCI  22
BENTON HARBOR  LGT SNOW  31  26  82 NW10G20   30.20R WCI  22
COLDWATER*     PTCLDY    26  22  87 W6        30.16S WCI  19
HILLSDALE*     CLOUDY    28  22  79 W6        30.13R WCI  21
HOLLAND        LGT SNOW  30  27  88 CALM      30.19R FOG
GRAND RAPIDS   LGT SNOW  27  23  85 NW5       30.17R FOG     WCI  22
KALAMAZOO      CLOUDY    28  21  75 W6        30.18R WCI  22
STURGIS*       CLOUDY    25  21  86 W3        30.17S
THREE RIVERS*  CLOUDY    29  24  81 CALM      30.18R

$$
OHZ001>008-015>018-024>025-271400-
NORTHWEST OHIO

CITY           SKY/WX    TMP DP  RH WIND       PRES   REMARKS
DEFIANCE       CLOUDY    30  18  60 NW9       30.19R WCI  22
FINDLAY        CLOUDY    30  24  78 NW8       30.15R WCI  22
TOLEDO EXPRESS CLOUDY    28  21  75 NW7       30.16R WCI  21
TOLEDO METCALF CLOUDY    29  21  72 NW8       30.16R WCI  21
LIMA           CLOUDY    30  23  75 NW9       30.16R WCI  22

$$
AND FOR LAKE MICHIGAN COASTAL AND OPEN LAKE BUOY OBSERVATIONS

STATION/POSITION TEMP    WIND        PRES    VSBY  WAVE
                 AIR SEA DIR/SP/G                  HT/PER
                 (F)     (DEG/KT/KT) (MB)    (MI)  (FT/S)
CALUMET HARBOR    26     280/  6/ 10 1023.4R
MICHIGAN CITY     31     290/ 20/ 24   N/A
SAINT JOSEPH      33     300/ 15/ 19 1023.4R
SOUTH LAKE BUOY   31 42  310/ 17/ 19 1023.5R         4/ 5

$$
&&



USA.gov is the U.S. government's official web portal to all federal, state and local government web resources and services.